Time,TemperatureF,DewpointF,PressureIn,WindDirection,WindDirectionDegrees,WindSpeedMPH,WindSpeedGustMPH,Humidity,HourlyPrecipIn,Conditions,Clouds,dailyrainin,SolarRadiationWatts/m^2,SoftwareType,DateUTC
2013-08-18 00:01:00,58.0,55.0,-100.00,NE,40,1.0,3.0,89,0.00,,,0.07,0.000000,,2013-08-18 08:01:00,
2013-08-18 00:12:00,58.0,55.0,-100.00,NE,40,1.0,3.0,89,0.00,,,0.07,0.000000,,2013-08-18 08:12:00,
2013-08-18 00:21:00,58.0,55.0,-100.00,NE,40,1.0,3.0,89,0.00,,,0.07,0.000000,,2013-08-18 08:21:00,
2013-08-18 00:52:00,57.0,54.0,-100.00,NNE,30,0.0,3.0,89,0.01,,,0.08,0.000000,,2013-08-18 08:52:00,
2013-08-18 01:01:00,57.0,54.0,-100.00,NNE,30,0.0,3.0,89,0.01,,,0.08,0.000000,,2013-08-18 09:01:00,
2013-08-18 01:11:00,57.0,54.0,-100.00,NNE,30,0.0,3.0,89,0.01,,,0.08,0.000000,,2013-08-18 09:11:00,
2013-08-18 01:21:00,57.0,54.0,-100.00,NNE,30,0.0,3.0,89,0.01,,,0.08,0.000000,,2013-08-18 09:21:00,
2013-08-18 01:53:00,55.0,54.0,-100.00,NNE,23,0.0,2.0,97,0.07,,,0.15,0.000000,,2013-08-18 09:53:00,
2013-08-18 02:03:00,55.0,54.0,-100.00,NNE,23,0.0,2.0,97,0.07,,,0.15,0.000000,,2013-08-18 10:03:00,
2013-08-18 02:13:00,55.0,54.0,-100.00,NNE,23,0.0,2.0,97,0.07,,,0.15,0.000000,,2013-08-18 10:13:00,
2013-08-18 02:22:00,55.0,54.0,-100.00,NNE,23,0.0,2.0,97,0.07,,,0.15,0.000000,,2013-08-18 10:22:00,
2013-08-18 02:52:00,55.0,54.0,-100.00,SE,136,0.0,2.0,97,0.08,,,0.23,0.000000,,2013-08-18 10:52:00,
2013-08-18 03:02:00,55.0,54.0,-100.00,SE,136,0.0,2.0,97,0.08,,,0.23,0.000000,,2013-08-18 11:02:00,
2013-08-18 03:11:00,55.0,54.0,-100.00,SE,136,0.0,2.0,97,0.08,,,0.23,0.000000,,2013-08-18 11:11:00,
2013-08-18 03:21:00,55.0,54.0,-100.00,SE,136,0.0,2.0,97,0.08,,,0.23,0.000000,,2013-08-18 11:21:00,
2013-08-18 03:52:00,54.0,53.0,-100.00,ENE,73,0.0,2.0,98,0.03,,,0.26,0.000000,,2013-08-18 11:52:00,
2013-08-18 04:01:00,54.0,53.0,-100.00,ENE,73,0.0,2.0,98,0.03,,,0.26,0.000000,,2013-08-18 12:01:00,
2013-08-18 04:11:00,54.0,53.0,-100.00,ENE,73,0.0,2.0,98,0.03,,,0.26,0.000000,,2013-08-18 12:11:00,
2013-08-18 04:21:00,54.0,53.0,-100.00,ENE,73,0.0,2.0,98,0.03,,,0.26,0.000000,,2013-08-18 12:21:00,
2013-08-18 04:52:00,54.0,53.0,-100.00,NNE,28,1.0,2.0,98,0.00,,,0.26,0.000000,,2013-08-18 12:52:00,
2013-08-18 05:01:00,54.0,53.0,-100.00,NNE,28,1.0,2.0,98,0.00,,,0.26,0.000000,,2013-08-18 13:01:00,
2013-08-18 05:11:00,54.0,53.0,-100.00,NNE,28,1.0,2.0,98,0.00,,,0.26,0.000000,,2013-08-18 13:11:00,
2013-08-18 05:21:00,54.0,53.0,-100.00,NNE,28,1.0,2.0,98,0.00,,,0.26,0.000000,,2013-08-18 13:21:00,
2013-08-18 05:52:00,53.0,52.0,-100.00,NNE,28,0.0,2.0,98,0.00,,,0.26,0.000000,,2013-08-18 13:52:00,
2013-08-18 06:01:00,53.0,52.0,-100.00,NNE,28,0.0,2.0,98,0.00,,,0.26,0.000000,,2013-08-18 14:01:00,
2013-08-18 06:11:00,53.0,52.0,-100.00,NNE,28,0.0,2.0,98,0.00,,,0.26,0.000000,,2013-08-18 14:11:00,
2013-08-18 06:21:00,53.0,52.0,-100.00,NNE,28,0.0,2.0,98,0.00,,,0.26,0.000000,,2013-08-18 14:21:00,
2013-08-18 06:53:00,53.0,52.0,-100.00,SW,221,0.0,1.0,98,0.00,,,0.26,0.000000,,2013-08-18 14:53:00,
2013-08-18 07:01:00,53.0,52.0,-100.00,SW,221,0.0,1.0,98,0.00,,,0.26,0.000000,,2013-08-18 15:01:00,
2013-08-18 07:11:00,53.0,52.0,-100.00,SW,221,0.0,1.0,98,0.00,,,0.26,0.000000,,2013-08-18 15:11:00,
2013-08-18 07:22:00,53.0,52.0,-100.00,SW,221,0.0,1.0,98,0.00,,,0.26,0.000000,,2013-08-18 15:22:00,
2013-08-18 07:54:00,53.0,52.0,-100.00,SW,230,0.0,2.0,98,0.04,,,0.29,3.000000,,2013-08-18 15:54:00,
2013-08-18 08:03:00,53.0,52.0,-100.00,SW,230,0.0,2.0,98,0.04,,,0.29,3.000000,,2013-08-18 16:03:00,
2013-08-18 08:13:00,53.0,52.0,-100.00,SW,230,0.0,2.0,98,0.04,,,0.29,3.000000,,2013-08-18 16:13:00,
2013-08-18 08:23:00,53.0,52.0,-100.00,SW,230,0.0,2.0,98,0.04,,,0.29,3.000000,,2013-08-18 16:23:00,
2013-08-18 08:52:00,53.0,52.0,-100.00,East,84,0.0,2.0,98,0.02,,,0.31,28.000000,,2013-08-18 16:52:00,
2013-08-18 09:02:00,53.0,52.0,-100.00,East,84,0.0,2.0,98,0.02,,,0.31,28.000000,,2013-08-18 17:02:00,
2013-08-18 09:12:00,53.0,52.0,-100.00,East,84,0.0,2.0,98,0.02,,,0.31,28.000000,,2013-08-18 17:12:00,
2013-08-18 09:23:00,53.0,52.0,-100.00,East,84,0.0,2.0,98,0.02,,,0.31,28.000000,,2013-08-18 17:23:00,
2013-08-18 09:52:00,54.0,53.0,-100.00,SSW,211,1.0,2.0,98,0.01,,,0.32,39.000000,,2013-08-18 17:52:00,
2013-08-18 10:02:00,54.0,53.0,-100.00,SSW,211,1.0,2.0,98,0.01,,,0.32,39.000000,,2013-08-18 18:02:00,
2013-08-18 10:12:00,54.0,53.0,-100.00,SSW,211,1.0,2.0,98,0.01,,,0.32,39.000000,,2013-08-18 18:12:00,
2013-08-18 10:21:00,54.0,53.0,-100.00,SSW,211,1.0,2.0,98,0.01,,,0.32,39.000000,,2013-08-18 18:21:00,
2013-08-18 10:52:00,55.0,54.0,-100.00,West,268,1.0,3.0,97,0.00,,,0.32,56.000000,,2013-08-18 18:52:00,
2013-08-18 11:01:00,55.0,54.0,-100.00,West,268,1.0,3.0,97,0.00,,,0.32,56.000000,,2013-08-18 19:01:00,
2013-08-18 11:11:00,55.0,54.0,-100.00,West,268,1.0,3.0,97,0.00,,,0.32,56.000000,,2013-08-18 19:11:00,
2013-08-18 11:22:00,55.0,54.0,-100.00,West,268,1.0,3.0,97,0.00,,,0.32,56.000000,,2013-08-18 19:22:00,
2013-08-18 11:52:00,57.0,55.0,-100.00,SSW,205,0.0,3.0,93,0.00,,,0.31,111.000000,,2013-08-18 19:52:00,
2013-08-18 12:02:00,57.0,55.0,-100.00,SSW,205,0.0,3.0,93,0.00,,,0.31,111.000000,,2013-08-18 20:02:00,
2013-08-18 12:12:00,57.0,55.0,-100.00,SSW,205,0.0,3.0,93,0.00,,,0.31,111.000000,,2013-08-18 20:12:00,
2013-08-18 12:22:00,57.0,55.0,-100.00,SSW,205,0.0,3.0,93,0.00,,,0.31,111.000000,,2013-08-18 20:22:00,
2013-08-18 12:52:00,59.0,56.0,-100.00,South,186,0.0,4.0,90,0.00,,,0.30,183.000000,,2013-08-18 20:52:00,
2013-08-18 13:01:00,59.0,56.0,-100.00,South,186,0.0,4.0,90,0.00,,,0.30,183.000000,,2013-08-18 21:01:00,
2013-08-18 13:11:00,59.0,56.0,-100.00,South,186,0.0,4.0,90,0.00,,,0.30,183.000000,,2013-08-18 21:11:00,
2013-08-18 13:21:00,59.0,56.0,-100.00,South,186,0.0,4.0,90,0.00,,,0.30,183.000000,,2013-08-18 21:21:00,
2013-08-18 13:53:00,62.0,56.0,-100.00,SSE,167,1.0,5.0,82,0.00,,,0.28,256.000000,,2013-08-18 21:53:00,
2013-08-18 14:03:00,62.0,56.0,-100.00,SSE,167,1.0,5.0,82,0.00,,,0.28,256.000000,,2013-08-18 22:03:00,
2013-08-18 14:13:00,62.0,56.0,-100.00,SSE,167,1.0,5.0,82,0.00,,,0.28,256.000000,,2013-08-18 22:13:00,
2013-08-18 14:23:00,62.0,56.0,-100.00,SSE,167,1.0,5.0,82,0.00,,,0.28,256.000000,,2013-08-18 22:23:00,
2013-08-18 14:52:00,63.0,56.0,-100.00,SSW,206,3.0,6.0,77,0.00,,,0.27,273.000000,,2013-08-18 22:52:00,
2013-08-18 15:02:00,63.0,56.0,-100.00,SSW,206,3.0,6.0,77,0.00,,,0.27,273.000000,,2013-08-18 23:02:00,
2013-08-18 15:11:00,63.0,56.0,-100.00,SSW,206,3.0,6.0,77,0.00,,,0.27,273.000000,,2013-08-18 23:11:00,
2013-08-18 15:22:00,63.0,56.0,-100.00,SSW,206,3.0,6.0,77,0.00,,,0.27,273.000000,,2013-08-18 23:22:00,
2013-08-18 15:52:00,63.0,56.0,-100.00,SW,229,3.0,6.0,79,0.00,,,0.26,241.000000,,2013-08-18 23:52:00,
2013-08-18 16:02:00,63.0,56.0,-100.00,SW,229,3.0,6.0,79,0.00,,,0.26,241.000000,,2013-08-19 00:02:00,
2013-08-18 16:11:00,63.0,56.0,-100.00,SW,229,3.0,6.0,79,0.00,,,0.26,241.000000,,2013-08-19 00:11:00,
2013-08-18 16:21:00,63.0,56.0,-100.00,SW,229,3.0,6.0,79,0.00,,,0.26,241.000000,,2013-08-19 00:21:00,
2013-08-18 16:52:00,64.0,56.0,-100.00,SW,231,2.0,6.0,76,0.00,,,0.26,288.000000,,2013-08-19 00:52:00,
2013-08-18 17:02:00,64.0,56.0,-100.00,SW,231,2.0,6.0,76,0.00,,,0.26,288.000000,,2013-08-19 01:02:00,
2013-08-18 17:11:00,64.0,56.0,-100.00,SW,231,2.0,6.0,76,0.00,,,0.26,288.000000,,2013-08-19 01:11:00,
2013-08-18 17:22:00,64.0,56.0,-100.00,SW,231,2.0,6.0,76,0.00,,,0.26,288.000000,,2013-08-19 01:22:00,
2013-08-18 17:52:00,63.0,55.0,-100.00,SW,234,0.0,4.0,76,0.00,,,0.26,161.000000,,2013-08-19 01:52:00,
2013-08-18 18:06:00,63.0,55.0,-100.00,SW,234,0.0,4.0,76,0.00,,,0.26,161.000000,,2013-08-19 02:06:00,
2013-08-18 18:11:00,63.0,55.0,-100.00,SW,234,0.0,4.0,76,0.00,,,0.26,161.000000,,2013-08-19 02:11:00,
2013-08-18 18:21:00,63.0,55.0,-100.00,SW,234,0.0,4.0,76,0.00,,,0.26,161.000000,,2013-08-19 02:21:00,
2013-08-18 18:52:00,65.0,55.0,-100.00,SE,133,0.0,3.0,70,0.00,,,0.26,197.000000,,2013-08-19 02:52:00,
2013-08-18 19:01:00,65.0,55.0,-100.00,SE,133,0.0,3.0,70,0.00,,,0.26,197.000000,,2013-08-19 03:01:00,
2013-08-18 19:11:00,65.0,55.0,-100.00,SE,133,0.0,3.0,70,0.00,,,0.26,197.000000,,2013-08-19 03:11:00,
2013-08-18 19:21:00,65.0,55.0,-100.00,SE,133,0.0,3.0,70,0.00,,,0.26,197.000000,,2013-08-19 03:21:00,
2013-08-18 19:53:00,64.0,57.0,-100.00,East,89,1.0,3.0,78,0.00,,,0.26,168.000000,,2013-08-19 03:53:00,
2013-08-18 20:03:00,64.0,57.0,-100.00,East,89,1.0,3.0,78,0.00,,,0.26,168.000000,,2013-08-19 04:03:00,
2013-08-18 20:12:00,64.0,57.0,-100.00,East,89,1.0,3.0,78,0.00,,,0.26,168.000000,,2013-08-19 04:12:00,
2013-08-18 20:23:00,64.0,57.0,-100.00,East,89,1.0,3.0,78,0.00,,,0.26,168.000000,,2013-08-19 04:23:00,
2013-08-18 21:22:00,61.0,55.0,-100.00,East,91,0.0,4.0,82,0.00,,,0.26,81.000000,,2013-08-19 05:22:00,
2013-08-18 21:52:00,59.0,55.0,-100.00,North,7,0.0,3.0,88,0.00,,,0.26,27.000000,,2013-08-19 05:52:00,
2013-08-18 22:02:00,59.0,55.0,-100.00,North,7,0.0,3.0,88,0.00,,,0.26,27.000000,,2013-08-19 06:02:00,
2013-08-18 22:11:00,59.0,55.0,-100.00,North,7,0.0,3.0,88,0.00,,,0.26,27.000000,,2013-08-19 06:11:00,
2013-08-18 22:21:00,59.0,55.0,-100.00,North,7,0.0,3.0,88,0.00,,,0.26,27.000000,,2013-08-19 06:21:00,
2013-08-18 22:52:00,57.0,55.0,-100.00,SSW,199,0.0,1.0,94,0.00,,,0.26,2.000000,,2013-08-19 06:52:00,
2013-08-18 23:01:00,57.0,55.0,-100.00,SSW,199,0.0,1.0,94,0.00,,,0.26,2.000000,,2013-08-19 07:01:00,
2013-08-18 23:11:00,57.0,55.0,-100.00,SSW,199,0.0,1.0,94,0.00,,,0.26,2.000000,,2013-08-19 07:11:00,
2013-08-18 23:21:00,57.0,55.0,-100.00,SSW,199,0.0,1.0,94,0.00,,,0.26,2.000000,,2013-08-19 07:21:00,
2013-08-18 23:52:00,56.0,54.0,-100.00,NE,42,1.0,2.0,94,0.00,,,0.26,0.000000,,2013-08-19 07:52:00,